Weather in Sumskiy Posad

Russia / Republic of Karelia     64°14′24″N   35°24′30″E
temp.,
°C
wind,
m/s
gust,
m/s
humid.,
%
clouds,
%
prec.,
mm/h
press.,
hPa
HPBL,
m
7 march, sun
sun700:00−7se61488100 0.1 989832
03:00−7se71492100 0.5 987869
06:00−8ese61293100 0.9 987792
09:00−9e61293100 1.8 990639
12:00−10e61191100 0.4 993608
15:00−9ene61289100 0.4 997666
18:00−11ne51388100 0.0 1001565
21:00−15nne41094100 0.0 1004350
8 march, mon
mon800:00−20n489895 0.0 1006194
03:00−23n489784 0.0 1010202
06:00−24n389887 0.0 1011199
09:00−23nne499780 0.0 1013291
12:00−21n489599 0.0 1014381
15:00−21n4895100 0.0 1016385
18:00−25n379888 0.0 1017169
21:00−27n239978 0.0 101943
9 march, tue
tue900:00−28n22990 0.0 102019
03:00−28nnw22990 0.0 102019
06:00−29w229961 0.0 102020
09:00−26wsw239436 0.0 102181
12:00−20wnw358650 0.0 1021258
15:00−16nw258774 0.0 1022338
18:00−19wnw129537 0.0 102220
21:00−21w129833 0.0 102320
10 march, wed
wed1000:00−20wsw33970 0.0 102344
03:00−20w36980 0.0 1023115
06:00−20w369712 0.0 1022106
09:00−18w389456 0.0 1023207
12:00−14w3691100 0.0 1023284
15:00−11w369195 0.0 1022322
18:00−13wsw349317 0.0 102287
21:00−16w36968 0.0 1022105
11 march, thu
thu1100:00−16w36960 0.0 1021110
03:00−18wsw36950 0.0 1021103
06:00−19wsw36905 0.0 1020118
09:00−17sw49838 0.0 1019221
12:00−12sw48790 0.0 1017297
15:00−10ssw410750 0.0 1015529
18:00−12ssw410800 0.0 1012337
21:00−15s514760 0.0 1009373